Location: Unnamed
(48.6007°N, 2.4808°E)
Time: 00:27:48
(UTC+01:00)

CAPELLA-10 (WHITNEY) - Visible Passes

Search period start: 02 December 2023 00:00
Search period end: 12 December 2023 00:00
Orbit: 574 x 587 km, 44.0° (Epoch: 01 December)

Date Brightness Start Highest point End Pass type
(mag) Time Alt. Az. Time Alt. Az. Time Alt. Az.
02 Dec ? 05:34:30 23° SSE 05:34:30 23° SSE 05:36:46 10° SE visible
02 Dec ? 07:12:57 10° SW 07:13:08 10° SW 07:13:18 10° SW visible
03 Dec ? 05:38:33 18° S 05:38:33 18° S 05:40:17 10° SSE visible
04 Dec ? 05:42:36 13° S 05:42:36 13° S 05:43:29 10° SSE visible
